Wind_Speed
25 25 24 23 23 22 21 20 18 17 16 15 15 15 16 19 21 25 29 31 34 37 40 41 43 45 46 45 45 43 42 42 43 42 40 38 39 39 39 38 36 35 35
26 26 25 24 23 23 22 22 20 19 18 17 16 15 14 15 18 20 24 28 32 35 37 40 42 43 44 45 45 45 44 43 43 43 42 40 38 39 40 39 38 37 36
27 27 26 26 25 24 23 23 22 21 20 19 17 15 14 14 15 17 20 23 27 31 34 37 39 42 42 43 44 45 45 43 43 43 43 42 41 40 40 39 38 37 36
27 27 27 27 26 25 25 24 24 23 21 20 18 15 14 13 13 15 17 20 23 26 30 33 36 39 40 42 44 45 46 45 44 44 44 44 42 41 41 40 39 38 37
26 27 27 27 27 27 26 25 25 24 23 21 18 16 14 12 12 13 16 19 21 24 27 30 33 36 38 41 42 44 45 46 44 44 44 44 43 42 41 40 40 40 39
26 26 27 27 28 28 27 26 26 25 24 23 20 17 15 12 11 11 13 16 19 21 24 27 30 32 35 37 40 42 43 44 45 44 43 43 43 43 42 40 40 41 40
25 26 27 27 28 28 28 28 27 26 25 24 22 19 16 13 11 10 11 12 15 17 20 24 27 29 32 34 36 39 41 42 42 41 41 41 41 41 43 43 41 41 40
25 26 27 27 28 28 28 28 28 27 26 25 23 21 18 15 13 10 8 9 10 13 16 20 23 26 28 31 34 35 37 39 39 39 39 39 40 40 41 42 41 40 39
25 26 27 27 28 28 28 28 29 28 27 25 24 22 19 16 14 12 10 8 9 10 13 16 19 22 25 28 31 34 35 36 37 38 38 38 40 39 38 37 37 37 37
25 26 26 27 27 28 28 28 28 28 28 26 25 23 21 18 15 13 11 9 8 9 10 13 15 19 22 24 28 31 32 33 34 35 36 35 36 37 36 35 34 35 34
25 25 26 26 26 27 27 27 28 28 27 26 25 24 22 19 17 14 12 10 8 7 8 10 12 15 18 19 23 26 29 30 32 33 33 34 34 34 34 34 33 33 34
24 25 25 25 26 26 26 26 27 27 27 26 25 24 23 20 18 15 14 11 8 6 6 7 9 11 14 16 18 22 25 26 29 31 32 32 32 32 32 32 31 31 32
25 25 25 25 25 25 25 25 25 25 25 25 25 24 22 21 19 17 15 12 9 6 5 4 6 8 10 12 14 17 21 23 25 26 27 28 29 30 30 30 30 29 29
25 25 25 25 25 25 24 25 25 24 24 24 24 23 22 21 19 17 15 13 10 8 6 4 4 6 8 10 12 15 17 20 23 24 26 27 27 28 29 29 29 29 30
26 25 25 25 25 24 24 24 24 24 23 23 22 22 21 20 19 17 15 13 10 9 7 5 3 3 6 9 11 12 14 16 18 20 23 25 27 27 28 29 29 28 28
27 27 26 26 25 25 24 24 23 23 23 22 22 21 20 19 17 16 15 13 11 9 7 5 3 3 3 6 9 11 12 14 16 18 20 22 24 25 26 26 26 26 26
28 28 27 27 27 26 25 24 23 23 22 22 21 20 19 18 17 15 14 13 11 9 7 5 5 4 3 5 8 10 11 13 14 16 18 21 22 23 24 24 24 25 25
29 29 29 28 28 27 27 26 25 24 23 22 21 20 19 18 17 15 14 13 11 9 8 6 5 4 4 5 7 10 11 13 14 15 16 18 20 21 22 23 23 23 23
31 31 30 30 30 30 29 29 28 27 26 24 23 22 21 19 18 17 15 13 12 10 9 8 7 6 5 6 7 9 10 12 13 15 16 18 19 20 20 21 22 22 22
33 33 33 32 32 32 32 31 31 30 29 28 26 25 23 22 20 19 17 16 15 13 11 10 9 9 8 8 9 10 11 12 13 14 16 17 19 20 19 20 21 21 21
35 35 35 35 35 35 35 34 34 33 32 31 30 29 28 26 24 22 21 19 18 16 15 13 12 12 12 11 11 11 12 13 13 14 15 16 18 19 20 20 20 20 20
37 37 37 37 37 38 38 38 37 37 36 36 35 34 33 31 28 27 25 23 22 20 19 18 17 16 15 15 15 14 14 14 15 15 16 17 18 19 20 20 20 21 21
39 39 39 39 40 40 40 41 41 41 40 40 40 39 38 36 35 32 30 29 27 26 24 22 21 20 19 19 18 18 18 18 18 18 18 19 19 20 20 21 21 21 21
43 43 43 43 43 43 44 44 44 45 45 45 45 44 43 42 40 39 37 35 33 31 29 28 27 25 24 23 22 22 21 21 21 21 21 21 22 22 22 22 22 22 22
46 46 47 47 47 48 48 48 48 49 49 50 50 50 49 48 46 45 43 41 39 37 35 33 32 31 30 29 28 27 26 25 25 25 25 24 24 24 25 25 25 24 24
49 50 50 51 51 52 52 52 52 52 52 53 54 54 54 53 52 51 49 47 45 43 41 39 37 36 34 33 32 32 31 30 29 29 29 29 28 28 28 28 27 27 26
Wind_Direction
10 8 6 3 1 0 357 353 348 342 333 321 307 291 278 265 256 249 243 240 238 236 236 235 234 234 235 235 234 233 231 232 231 230 233 234 234 233 233 235 237 239 240
11 10 9 7 4 2 359 356 351 346 340 333 320 305 289 272 262 254 246 241 239 237 235 234 234 234 234 234 234 234 232 232 231 230 232 234 236 236 235 236 236 238 239
11 10 10 9 7 5 2 359 357 352 347 341 333 318 303 285 269 258 249 244 240 238 236 235 234 234 234 234 234 234 234 233 232 231 232 235 237 238 236 235 237 238 239
11 11 11 10 8 6 3 2 0 357 353 348 342 331 316 298 281 266 254 247 243 241 238 236 234 234 234 234 234 234 234 234 234 232 232 234 236 237 236 236 238 239 240
9 10 10 10 9 7 5 3 2 359 357 354 351 344 332 314 294 277 262 251 246 242 239 237 235 234 233 233 234 234 234 235 236 235 234 234 235 236 236 237 238 240 241
6 6 7 8 8 7 6 5 3 2 1 358 356 350 343 330 311 290 273 257 248 244 241 239 237 236 234 233 233 232 233 235 236 237 237 235 235 236 236 236 238 239 241
2 3 3 4 5 5 5 5 5 4 3 1 0 357 352 345 330 309 286 267 256 249 243 239 237 236 235 234 233 232 233 234 235 237 238 235 235 234 235 236 237 238 240
357 359 0 1 2 3 3 4 4 4 3 2 2 360 356 351 345 334 311 285 265 253 246 242 239 235 233 233 232 232 232 233 234 234 235 235 235 235 235 236 236 237 239
353 355 356 358 359 0 1 2 3 3 3 3 3 2 0 356 349 340 328 304 279 262 253 247 241 235 233 233 232 232 231 231 231 231 232 234 234 234 234 234 234 237 239
349 350 352 354 356 358 359 0 2 3 4 4 3 2 2 360 354 348 338 321 295 273 261 251 244 237 233 234 231 229 230 230 230 230 230 230 232 233 233 234 236 238 238
344 346 348 349 352 354 356 358 360 2 3 4 4 4 3 1 358 353 347 335 314 290 269 254 245 238 235 234 229 226 226 227 227 228 229 230 230 231 233 234 235 234 234
338 340 342 344 346 349 352 354 356 358 1 3 4 4 4 4 3 1 357 352 339 317 282 258 248 240 235 233 227 224 223 224 224 224 226 229 229 230 228 228 228 229 230
332 333 335 338 340 343 346 349 351 353 356 359 1 2 3 3 3 4 4 3 359 344 318 277 252 241 236 229 224 221 220 221 222 222 224 224 223 224 224 224 223 225 226
325 326 328 330 332 335 339 342 345 347 350 353 356 359 1 2 3 4 6 6 7 1 341 312 273 252 234 226 222 221 219 218 219 220 220 218 219 220 219 218 219 222 223
318 319 320 322 324 326 329 333 337 340 342 346 349 352 355 358 360 1 2 3 3 3 357 340 299 251 229 221 215 214 215 214 213 213 214 216 217 216 215 215 215 216 216
314 314 315 316 317 318 320 323 326 330 333 336 340 343 347 349 352 354 355 357 356 356 356 350 325 274 238 215 212 211 210 210 210 208 209 210 210 210 211 213 212 213 215
310 310 310 311 311 312 312 314 315 318 321 324 327 330 334 337 340 343 345 346 346 344 338 328 320 302 260 226 214 208 207 209 209 207 207 206 206 208 209 209 211 213 214
306 306 306 307 307 306 306 306 307 308 309 312 314 317 319 322 324 326 329 333 333 330 324 316 307 289 263 234 223 217 211 209 210 208 207 207 207 207 210 211 212 212 210
303 303 303 303 303 302 301 301 300 300 300 301 302 304 305 307 308 309 309 311 314 313 308 300 290 280 258 238 228 222 217 213 214 213 212 210 208 209 210 209 208 208 209
303 302 301 300 299 298 297 296 295 294 293 291 291 292 292 293 295 295 293 292 293 292 290 284 273 264 257 244 235 230 228 223 220 216 212 209 208 207 207 208 207 207 209
301 301 300 299 297 296 294 293 291 289 288 285 284 282 282 282 282 282 282 280 278 277 276 273 266 258 251 243 238 233 230 225 220 215 210 208 207 209 209 210 210 210 212
300 300 299 298 296 294 292 290 288 286 284 282 279 277 275 274 273 272 272 271 269 267 265 264 261 255 248 241 237 234 230 225 221 218 215 213 211 210 211 211 212 212 212
302 301 300 299 297 295 292 289 287 284 282 279 276 274 271 268 267 265 264 263 262 260 257 255 255 252 248 242 238 235 232 229 226 223 220 218 216 215 214 213 213 215 216
302 301 301 299 297 295 292 289 286 283 280 277 274 271 268 265 262 260 259 257 256 255 253 251 249 248 245 242 238 235 234 232 229 226 224 222 221 221 219 217 217 218 219
302 302 301 300 298 296 293 290 287 283 279 275 272 269 266 263 259 256 254 253 252 251 250 248 246 245 243 241 239 237 234 233 231 229 227 226 225 224 223 222 221 221 222
303 303 302 301 299 297 295 292 289 284 280 275 271 267 264 261 258 255 252 250 248 247 246 245 244 242 241 240 239 237 235 234 232 231 230 229 228 227 226 226 226 226 227
Height
5799 5793 5788 5783 5778 5773 5768 5764 5760 5755 5751 5748 5745 5743 5741 5740 5741 5742 5744 5746 5750 5754 5758 5763 5767 5772 5777 5782 5787 5792 5797 5802 5807 5812 5815 5819 5824 5828 5833 5836 5840 5844 5847
5799 5794 5788 5783 5778 5772 5768 5763 5758 5753 5749 5744 5741 5738 5736 5735 5735 5735 5736 5739 5742 5745 5749 5754 5758 5763 5768 5773 5778 5783 5788 5793 5798 5803 5807 5811 5816 5820 5825 5829 5832 5836 5839
5800 5795 5789 5783 5778 5772 5767 5762 5757 5752 5746 5741 5737 5734 5732 5730 5730 5730 5730 5732 5735 5738 5741 5745 5749 5754 5759 5764 5769 5774 5779 5783 5788 5793 5798 5803 5807 5811 5816 5820 5824 5828 5831
5801 5796 5790 5784 5778 5773 5767 5761 5756 5750 5745 5739 5735 5731 5728 5726 5725 5725 5726 5727 5729 5731 5734 5737 5741 5745 5750 5754 5759 5764 5769 5774 5779 5784 5789 5794 5798 5802 5807 5811 5816 5819 5823
5802 5797 5791 5785 5779 5773 5767 5761 5755 5750 5744 5738 5733 5729 5726 5723 5722 5721 5721 5722 5723 5725 5727 5730 5733 5737 5741 5745 5750 5755 5760 5765 5769 5774 5779 5784 5789 5793 5798 5803 5807 5810 5814
5803 5797 5792 5786 5780 5774 5767 5761 5755 5749 5743 5738 5732 5728 5724 5721 5719 5717 5716 5716 5717 5719 5720 5723 5725 5729 5733 5737 5741 5746 5751 5756 5761 5766 5770 5775 5781 5785 5789 5793 5798 5802 5805
5803 5798 5792 5786 5780 5774 5768 5761 5755 5749 5743 5737 5731 5727 5722 5719 5716 5714 5712 5712 5712 5713 5714 5716 5719 5722 5725 5729 5733 5737 5742 5747 5752 5757 5762 5766 5771 5775 5780 5784 5788 5792 5796
5803 5798 5792 5786 5780 5774 5768 5762 5755 5749 5743 5737 5731 5726 5721 5718 5715 5712 5710 5709 5708 5709 5709 5711 5712 5715 5718 5722 5725 5730 5734 5738 5744 5749 5754 5758 5762 5766 5770 5774 5778 5782 5786
5802 5797 5792 5786 5780 5775 5769 5762 5756 5749 5743 5737 5731 5726 5721 5717 5714 5711 5708 5706 5705 5705 5705 5706 5707 5709 5712 5715 5718 5722 5726 5730 5735 5740 5745 5749 5753 5758 5762 5766 5770 5773 5777
5801 5796 5791 5785 5780 5774 5769 5763 5756 5750 5744 5738 5732 5726 5721 5717 5713 5710 5707 5704 5703 5702 5701 5702 5702 5704 5706 5709 5711 5715 5719 5723 5728 5732 5737 5741 5745 5749 5754 5757 5761 5766 5769
5799 5794 5790 5784 5779 5774 5768 5763 5757 5751 5745 5739 5733 5727 5722 5717 5713 5709 5706 5703 5701 5700 5699 5699 5699 5700 5702 5704 5706 5709 5713 5717 5721 5725 5729 5733 5737 5742 5746 5750 5754 5758 5762
5797 5792 5788 5783 5778 5773 5768 5762 5757 5751 5745 5740 5734 5728 5723 5718 5713 5709 5705 5703 5700 5699 5698 5697 5697 5697 5698 5699 5701 5704 5707 5711 5714 5718 5723 5727 5731 5735 5739 5743 5746 5750 5754
5794 5789 5785 5781 5776 5771 5767 5762 5756 5751 5746 5740 5735 5730 5724 5719 5714 5710 5706 5703 5701 5699 5697 5696 5696 5696 5696 5697 5698 5700 5703 5706 5709 5713 5716 5721 5724 5728 5732 5736 5740 5744 5747
5790 5786 5782 5777 5773 5769 5765 5760 5755 5750 5746 5741 5736 5731 5726 5721 5716 5712 5708 5705 5702 5700 5698 5697 5696 5695 5695 5696 5697 5698 5700 5702 5705 5708 5712 5715 5718 5722 5726 5730 5734 5738 5742
5785 5781 5777 5773 5770 5766 5762 5758 5754 5749 5745 5740 5736 5731 5726 5722 5718 5714 5710 5707 5704 5702 5700 5698 5696 5695 5695 5695 5695 5696 5698 5699 5701 5704 5707 5710 5714 5717 5721 5725 5729 5733 5737
5779 5775 5772 5768 5765 5761 5758 5754 5751 5747 5743 5739 5735 5731 5727 5723 5719 5715 5712 5709 5706 5703 5701 5699 5697 5696 5695 5695 5695 5696 5697 5698 5700 5702 5705 5708 5711 5714 5717 5721 5724 5728 5732
5773 5769 5766 5763 5759 5756 5753 5750 5746 5743 5740 5737 5733 5729 5726 5722 5719 5715 5712 5709 5707 5704 5702 5700 5698 5697 5696 5696 5695 5695 5696 5697 5699 5700 5702 5705 5708 5711 5714 5717 5720 5724 5727
5765 5762 5759 5756 5753 5750 5747 5744 5741 5738 5735 5732 5730 5727 5724 5721 5718 5715 5712 5709 5707 5704 5702 5700 5699 5697 5696 5696 5696 5696 5696 5697 5698 5699 5701 5703 5705 5708 5711 5714 5717 5720 5723
5757 5754 5751 5748 5745 5742 5739 5737 5734 5732 5729 5727 5725 5722 5720 5717 5715 5712 5710 5708 5705 5703 5701 5700 5698 5697 5696 5696 5695 5695 5696 5696 5697 5698 5699 5701 5703 5706 5708 5711 5714 5717 5720
5748 5745 5742 5739 5737 5734 5731 5728 5726 5724 5722 5720 5718 5716 5714 5712 5710 5708 5706 5704 5703 5701 5700 5698 5697 5696 5695 5695 5694 5694 5695 5695 5695 5696 5697 5699 5701 5703 5706 5708 5711 5714 5717
5739 5736 5732 5729 5727 5724 5721 5719 5717 5714 5712 5711 5709 5708 5706 5705 5704 5702 5701 5700 5698 5697 5696 5695 5694 5693 5693 5692 5692 5692 5693 5693 5693 5694 5695 5697 5699 5701 5703 5706 5708 5711 5713
5728 5725 5722 5719 5715 5712 5710 5707 5705 5703 5701 5700 5699 5698 5696 5695 5695 5694 5693 5693 5692 5691 5691 5690 5689 5689 5689 5689 5689 5689 5690 5690 5691 5692 5693 5695 5696 5698 5700 5702 5705 5707 5709
5716 5713 5710 5706 5703 5700 5697 5694 5692 5690 5688 5687 5686 5685 5684 5684 5684 5683 5683 5683 5683 5683 5683 5683 5683 5683 5683 5683 5684 5684 5685 5686 5687 5688 5690 5691 5693 5695 5696 5699 5701 5703 5705
5703 5700 5696 5693 5689 5686 5683 5680 5677 5675 5673 5671 5670 5669 5669 5669 5670 5670 5671 5671 5672 5673 5673 5674 5675 5675 5676 5677 5677 5678 5679 5681 5682 5683 5685 5686 5688 5690 5692 5694 5696 5698 5701
5689 5685 5681 5677 5673 5670 5666 5663 5660 5657 5655 5653 5652 5651 5651 5652 5653 5654 5655 5656 5658 5660 5661 5662 5664 5665 5666 5668 5669 5671 5672 5674 5675 5677 5679 5680 5682 5684 5686 5688 5691 5693 5695
5674 5669 5665 5660 5656 5651 5647 5644 5640 5637 5634 5632 5630 5630 5630 5631 5633 5635 5637 5639 5642 5644 5646 5649 5651 5653 5655 5657 5659 5661 5663 5665 5667 5669 5671 5673 5675 5677 5680 5682 5684 5686 5689